Location: North Fort Myers
(26.6673°N, 81.8801°W)
Time: 12:03:21
(UTC+00:00)

Envisat - Visible Passes

Search period start: 12 August 2022 00:00
Search period end: 22 August 2022 00:00
Orbit: 763 x 765 km, 98.2° (Epoch: 11 August)

Date Brightness Start Highest point End Pass type
(mag) Time Alt. Az. Time Alt. Az. Time Alt. Az.
12 Aug 3.0 09:46:08 10° NNE 09:51:13 88° ESE 09:56:17 10° SSW visible
13 Aug 4.5 09:09:41 10° NE 09:14:16 33° E 09:18:48 10° SSE visible
14 Aug 5.7 08:34:55 10° ENE 08:37:09 13° E 08:39:22 10° ESE visible
14 Aug 3.3 10:11:25 10° N 10:16:16 48° WNW 10:21:07 10° SSW visible
15 Aug 3.3 09:34:23 10° NNE 09:39:25 66° E 09:44:26 10° S visible
16 Aug 5.0 08:58:16 10° NE 09:02:25 25° E 09:06:32 10° SSE visible
16 Aug 4.1 10:37:07 10° NNW 10:41:14 26° WNW 10:45:21 10° SW visible
17 Aug 3.0 09:59:28 10° N 10:04:30 65° WNW 10:09:30 10° SSW visible
18 Aug 3.9 09:22:42 10° NNE 09:27:36 48° E 09:32:28 10° S visible
19 Aug 5.4 08:47:01 10° NE 08:50:33 19° E 08:54:03 10° SE visible
19 Aug 3.7 10:24:58 10° N 10:29:31 34° WNW 10:34:02 10° SW visible
20 Aug 2.9 09:47:38 10° N 09:52:43 87° WNW 09:57:47 10° SSW visible
21 Aug 4.4 09:11:08 10° NNE 09:15:46 36° E 09:20:23 10° SSE visible
